• In Hungary
  • List of Countries
  • For 7 days
  • Water Temperature
  • Satellite Maps
  • Weather Map
  • News
  • Weather Widgets
  • user-avatar
    Login

    Hourly Weather Massaua

    Today, 20 February, Tuesday

    Time Temperature Precipitation Wind Pressure Humidity
    00:00 +29°C° 0 mm 2 mps 757 mmHg 81%
    01:00 +28°C° 0 mm 2 mps 757 mmHg 80%
    02:00 +28°C° 0 mm 2 mps 757 mmHg 80%
    03:00 +28°C° 0 mm 1 mps 757 mmHg 79%
    04:00 +28°C° 0 mm 1 mps 757 mmHg 79%
    05:00 +28°C° 0 mm 1 mps 757 mmHg 79%
    06:00 +27°C° 0 mm 1 mps 757 mmHg 79%
    07:00 +28°C° 0 mm 1 mps 757 mmHg 73%
    08:00 +29°C° 0 mm 1 mps 757 mmHg 66%
    09:00 +31°C° 0 mm 1 mps 757 mmHg 55%
    10:00 +32°C° 0 mm 2 mps 757 mmHg 52%
    11:00 +34°C° 0 mm 2 mps 757 mmHg 50%
    12:00 +35°C° 0 mm 3 mps 756 mmHg 47%
    13:00 +35°C° 0 mm 3 mps 756 mmHg 49%
    14:00 +35°C° 0 mm 3 mps 755 mmHg 52%
    15:00 +35°C° 0 mm 3 mps 754 mmHg 52%
    16:00 +34°C° 0.1 mm 3 mps 754 mmHg 56%
    17:00 +34°C° 0.1 mm 3 mps 754 mmHg 60%
    18:00 +32°C° 0.1 mm 2 mps 754 mmHg 64%
    19:00 +31°C° 0.2 mm 2 mps 754 mmHg 66%
    20:00 +31°C° 0.2 mm 1 mps 755 mmHg 67%
    21:00 +30°C° 0.2 mm 1 mps 755 mmHg 69%
    22:00 +30°C° 0 mm 1 mps 755 mmHg 69%
    23:00 +30°C° 0 mm 1 mps 755 mmHg 68%

    Tomorrow, 21 February, Wednesday

    Time Temperature Precipitation Wind Pressure Humidity
    00:00 +30°C° 0 mm 1 mps 756 mmHg 68%
    01:00 +30°C° 0 mm 1 mps 755 mmHg 68%
    02:00 +30°C° 0 mm 1 mps 755 mmHg 68%
    03:00 +29°C° 0 mm 1 mps 755 mmHg 68%
    04:00 +29°C° 0 mm 1 mps 756 mmHg 69%
    05:00 +27°C° 0 mm 0 mps 756 mmHg 69%
    06:00 +27°C° 0 mm 0 mps 756 mmHg 69%
    07:00 +29°C° 0 mm 1 mps 756 mmHg 65%
    08:00 +30°C° 0 mm 1 mps 756 mmHg 60%
    09:00 +31°C° 0 mm 1 mps 757 mmHg 56%
    10:00 +32°C° 0 mm 2 mps 756 mmHg 54%
    11:00 +34°C° 0 mm 2 mps 756 mmHg 52%
    12:00 +35°C° 0 mm 2 mps 756 mmHg 49%
    13:00 +35°C° 0.1 mm 3 mps 755 mmHg 51%
    14:00 +35°C° 0.1 mm 3 mps 755 mmHg 53%
    15:00 +35°C° 0.1 mm 3 mps 754 mmHg 55%
    16:00 +34°C° 0.2 mm 3 mps 754 mmHg 60%
    17:00 +32°C° 0.2 mm 2 mps 754 mmHg 66%
    18:00 +32°C° 0.2 mm 2 mps 754 mmHg 71%
    19:00 +31°C° 0.1 mm 2 mps 754 mmHg 74%
    20:00 +31°C° 0.1 mm 1 mps 755 mmHg 76%
    21:00 +30°C° 0.1 mm 1 mps 755 mmHg 78%
    22:00 +30°C° 0 mm 1 mps 756 mmHg 79%
    23:00 +30°C° 0 mm 1 mps 756 mmHg 79%

    Day after tomorrow, 22 February, Thursday

    Time Temperature Precipitation Wind Pressure Humidity
    00:00 +28°C° 0 mm 0 mps 756 mmHg 79%
    01:00 +28°C° 0 mm 0 mps 756 mmHg 80%
    02:00 +27°C° 0 mm 0 mps 755 mmHg 80%
    03:00 +27°C° 0 mm 0 mps 755 mmHg 81%
    04:00 +27°C° 0 mm 0 mps 755 mmHg 81%
    05:00 +27°C° 0 mm 0 mps 755 mmHg 81%
    06:00 +26°C° 0 mm 0 mps 755 mmHg 81%
    07:00 +29°C° 0 mm 1 mps 756 mmHg 75%
    08:00 +30°C° 0 mm 1 mps 756 mmHg 69%
    09:00 +31°C° 0 mm 1 mps 757 mmHg 62%
    10:00 +32°C° 0 mm 2 mps 756 mmHg 57%
    11:00 +34°C° 0 mm 2 mps 756 mmHg 52%
    12:00 +36°C° 0 mm 3 mps 756 mmHg 47%
    13:00 +36°C° 0 mm 3 mps 755 mmHg 47%
    14:00 +36°C° 0 mm 4 mps 754 mmHg 48%
    15:00 +36°C° 0 mm 4 mps 753 mmHg 49%
    16:00 +35°C° 0.1 mm 4 mps 754 mmHg 53%
    17:00 +34°C° 0.1 mm 3 mps 754 mmHg 57%
    18:00 +33°C° 0.1 mm 3 mps 754 mmHg 61%
    19:00 +33°C° 0 mm 3 mps 754 mmHg 63%
    20:00 +31°C° 0 mm 3 mps 755 mmHg 64%
    21:00 +31°C° 0 mm 2 mps 755 mmHg 65%
    22:00 +31°C° 0 mm 2 mps 755 mmHg 63%
    23:00 +31°C° 0 mm 2 mps 755 mmHg 62%

    23 February, Friday

    Time Temperature Precipitation Wind Pressure Humidity
    00:00 +31°C° 0 mm 1 mps 755 mmHg 60%
    01:00 +30°C° 0 mm 2 mps 755 mmHg 59%
    02:00 +30°C° 0 mm 2 mps 755 mmHg 58%
    03:00 +30°C° 0 mm 2 mps 754 mmHg 56%
    04:00 +29°C° 0 mm 2 mps 754 mmHg 58%
    05:00 +29°C° 0 mm 2 mps 755 mmHg 60%
    06:00 +29°C° 0 mm 2 mps 755 mmHg 62%
    07:00 +30°C° 0 mm 2 mps 755 mmHg 58%
    08:00 +31°C° 0 mm 2 mps 756 mmHg 54%
    09:00 +32°C° 0 mm 2 mps 756 mmHg 51%
    10:00 +34°C° 0 mm 2 mps 756 mmHg 47%
    11:00 +35°C° 0 mm 2 mps 755 mmHg 43%
    12:00 +36°C° 0 mm 3 mps 755 mmHg 39%
    13:00 +37°C° 0 mm 3 mps 754 mmHg 38%
    14:00 +37°C° 0 mm 3 mps 753 mmHg 37%
    15:00 +37°C° 0 mm 3 mps 752 mmHg 37%
    16:00 +37°C° 0 mm 3 mps 752 mmHg 40%
    17:00 +36°C° 0 mm 3 mps 752 mmHg 43%
    18:00 +35°C° 0 mm 2 mps 753 mmHg 46%
    19:00 +35°C° 0 mm 2 mps 753 mmHg 48%
    20:00 +34°C° 0 mm 2 mps 754 mmHg 50%
    21:00 +33°C° 0 mm 1 mps 755 mmHg 52%
    22:00 +32°C° 0 mm 1 mps 754 mmHg 53%
    23:00 +32°C° 0 mm 1 mps 754 mmHg 55%

    24 February, Saturday

    Time Temperature Precipitation Wind Pressure Humidity
    00:00 +32°C° 0 mm 1 mps 754 mmHg 56%
    01:00 +31°C° 0 mm 1 mps 754 mmHg 56%
    02:00 +31°C° 0 mm 1 mps 753 mmHg 57%
    03:00 +31°C° 0 mm 1 mps 753 mmHg 57%
    04:00 +30°C° 0 mm 1 mps 753 mmHg 57%
    05:00 +30°C° 0 mm 1 mps 754 mmHg 57%
    06:00 +30°C° 0 mm 1 mps 754 mmHg 57%
    07:00 +31°C° 0 mm 1 mps 754 mmHg 52%
    08:00 +32°C° 0 mm 1 mps 755 mmHg 46%
    09:00 +34°C° 0 mm 1 mps 755 mmHg 40%
    10:00 +36°C° 0 mm 2 mps 755 mmHg 37%
    11:00 +37°C° 0 mm 2 mps 755 mmHg 34%
    12:00 +38°C° 0 mm 3 mps 754 mmHg 32%
    13:00 +38°C° 0 mm 3 mps 753 mmHg 32%
    14:00 +39°C° 0 mm 3 mps 753 mmHg 31%
    15:00 +39°C° 0 mm 3 mps 752 mmHg 31%
    16:00 +38°C° 0 mm 3 mps 752 mmHg 34%
    17:00 +38°C° 0 mm 3 mps 752 mmHg 36%
    18:00 +37°C° 0 mm 3 mps 752 mmHg 39%
    19:00 +37°C° 0 mm 2 mps 753 mmHg 41%
    20:00 +36°C° 0 mm 2 mps 753 mmHg 43%
    21:00 +34°C° 0 mm 1 mps 754 mmHg 46%
    22:00 +35°C° 0 mm 2 mps 754 mmHg 47%
    23:00 +35°C° 0 mm 2 mps 754 mmHg 48%

    25 February, Sunday

    Time Temperature Precipitation Wind Pressure Humidity
    00:00 +34°C° 0 mm 2 mps 754 mmHg 49%
    01:00 +34°C° 0 mm 2 mps 754 mmHg 49%
    02:00 +32°C° 0 mm 2 mps 753 mmHg 49%
    03:00 +32°C° 0 mm 2 mps 753 mmHg 49%
    04:00 +31°C° 0 mm 1 mps 753 mmHg 49%
    05:00 +31°C° 0 mm 1 mps 754 mmHg 50%
    06:00 +30°C° 0 mm 1 mps 754 mmHg 50%
    07:00 +32°C° 0 mm 1 mps 755 mmHg 45%
    08:00 +34°C° 0 mm 2 mps 755 mmHg 40%
    09:00 +36°C° 0 mm 2 mps 755 mmHg 35%
    10:00 +36°C° 0 mm 2 mps 755 mmHg 34%
    11:00 +37°C° 0 mm 3 mps 755 mmHg 33%
    12:00 +38°C° 0 mm 3 mps 754 mmHg 32%
    13:00 +38°C° 0 mm 3 mps 754 mmHg 33%
    14:00 +38°C° 0 mm 3 mps 753 mmHg 35%
    15:00 +38°C° 0 mm 3 mps 752 mmHg 36%
    16:00 +37°C° 0 mm 3 mps 752 mmHg 41%
    17:00 +36°C° 0 mm 2 mps 752 mmHg 45%
    18:00 +35°C° 0 mm 2 mps 753 mmHg 50%
    19:00 +35°C° 0 mm 2 mps 753 mmHg 53%
    20:00 +34°C° 0 mm 2 mps 754 mmHg 56%
    21:00 +34°C° 0 mm 2 mps 754 mmHg 59%
    22:00 +34°C° 0 mm 2 mps 754 mmHg 60%
    23:00 +32°C° 0 mm 2 mps 754 mmHg 60%
    Show more